Regional Weather Roundup
Issued by NWS

Home | Current Version | Previous Version | Text Only | Print | Product List | Glossary On
Versions: 1 2 3 4 5 6 7 8 9 10 11 12 13 14 15 16 17 18 19 20 21 22 23 24 25 26 27 28 29 30 31 32 33 34 35 36 37 38 39 40 41 42 43 44 45 46 47 48 49 50
000
ASUS43 KLMK 180702
RWRKY
KENTUCKY REGIONAL WEATHER ROUNDUP
NATIONAL WEATHER SERVICE LOUISVILLE KY
300 AM EDT FRI APR 18 2014

NOTE "FAIR" INDICATES FEW OR NO CLOUDS BELOW 12,000 FEET
WITH NO SIGNIFICANT WEATHER AND/OR OBSTRUCTIONS TO VISIBILITY.

KYZ001>023-026-027-061>063-070>075-180800-
WESTERN AND SOUTH CENTRAL KENTUCKY

CITY           SKY/WX    TMP DP  RH WIND       PRES   REMARKS
PADUCAH        MOCLDY    48  43  82 CALM      30.23S
HENDERSON      MOCLDY    48  39  71 CALM      30.24S
OWENSBORO      MOCLDY    49  42  76 E3        30.25S
HOPKINSVILLE   CLOUDY    52  39  62 SE5       30.25R
BOWLING GREEN  PTCLDY    49  41  74 CALM      30.27S
GLASGOW        NOT AVBL
$$

KYZ024-025-028>034-038-045-046-053-180800-
NORTH CENTRAL KENTUCKY

CITY           SKY/WX    TMP DP  RH WIND       PRES   REMARKS
LOUISVILLE/SDF CLOUDY    52  39  61 CALM      30.25S
LOUISVILLE/LOU PTCLDY    50  39  66 CALM      30.26F
FORT KNOX      MOCLDY    46  37  70 CALM      30.25R
$$

KYZ035>037-039>044-047>052-055>060-089>105-180800-
NORTHEAST KENTUCKY

CITY           SKY/WX    TMP DP  RH WIND       PRES   REMARKS
LEXINGTON      MOCLDY    47  37  68 SE5       30.26F
COVINGTON      CLOUDY    48  36  63 CALM      30.25F
FRANKFORT      MOCLDY    42  37  82 CALM      30.25F
$$

KYZ054-064>069-076>088-106>120-180800-
SOUTHEAST KENTUCKY

CITY           SKY/WX    TMP DP  RH WIND       PRES   REMARKS
JACKSON        MOCLDY    53  22  29 CALM      30.29R
LONDON         CLOUDY    47  35  63 CALM      30.29R
SOMERSET       NOT AVBL
MIDDLESBORO    NOT AVBL
MONTICELLO     CLOUDY    42  38  86 CALM      30.31R
$$




USA.gov is the U.S. government's official web portal to all federal, state and local government web resources and services.